Hourly Data Report for September 03, 2017

All times are specified in Local Standard Time (LST). Add 1 hour to adjust for Daylight Saving Time where and when it is observed.

ST. PETERS
PRINCE EDWARD ISLAND

46°27'01.000" N
62°34'33.000" W
29.70 m
8300562
71310
ZSP

Download Data

Hourly Data (September 2017)
Hourly Data Report for September 3, 2017
Temp Definition
°C
Dew Point Temp Definition
°C
Rel Hum Definition
%
Wind Dir Definition
10's deg

Wind Spd Definition
km/h
Visibility Definition
km
Stn Press Definition
kPa
Hmdx Definition


Wind Chill Definition


Weather Definition


TIME
00:00 9.2 7.8 91 22 5   101.98     LegendNANA
01:00 9.0 7.7 92 21 6   102.01     LegendNANA
02:00 8.1 6.7 91 19 6   102.07     LegendNANA
03:00 7.3 6.1 92 16 4   102.05     LegendNANA
04:00 7.3 6.4 94 16 6   102.08     LegendNANA
05:00 8.0 7.0 94 20 6   102.14     LegendNANA
06:00 7.9 7.2 95 17 6   102.16     LegendNANA
07:00 10.3 9.3 94 15 6   102.19     LegendNANA
08:00 14.6 10.4 76 15 5   102.21     LegendNANA
09:00 16.5 10.0 66 14 5   102.20     LegendNANA
10:00 17.7 10.1 61 17 8   102.21     LegendNANA
11:00 17.9 10.9 63 16 11   102.18     LegendNANA
12:00 18.0 11.4 66 17 9   102.09     LegendNANA
13:00 18.5 10.8 61 16 13   102.04     LegendNANA
14:00 18.2 8.8 54 15 12   101.97     LegendNANA
15:00 18.6 9.3 55 15 11   101.91     LegendNANA
16:00 17.6 10.8 64 15 8   101.88     LegendNANA
17:00 16.6 11.1 70 13 11   101.83     LegendNANA
18:00 16.2 12.2 77 13 6   101.77     LegendNANA
19:00 15.3 10.6 73 16 11   101.75     LegendNANA
20:00 14.1 10.6 80 15 7   101.69     LegendNANA
21:00 14.4 10.7 78 14 9   101.54     LegendNANA
22:00 14.6 10.4 76 14 12   101.42     LegendNANA
23:00 14.3 10.8 79 15 14   101.30     LegendNANA

Notes on Data Quality.

Legend

  • E = Estimated
  • M = Missing
  • NA = Not Available
  • ‡ = Partner data that is not subject to review by the National Climate Archives
Date modified: